Regional Weather Roundup
Issued by NWS Newport/Morehead, NC

Current Version | Previous Version | Graphics & Text | Print | Product List | Glossary On
Versions: 1 2 3 4 5 6 7 8 9 10 11 12 13 14 15 16 17 18 19 20 21 22 23 24 25 26 27 28 29 30 31 32 33 34 35 36 37 38 39 40 41 42 43 44 45 46 47 48 49 50
000 ASUS42 KMHX 041125 RWRMHX WEATHER ROUNDUP FOR EASTERN NORTH CAROLINA NATIONAL WEATHER SERVICE NEWPORT/MOREHEAD CITY NC 700 AM EDT SAT JUL 04 2015 NOTE: "FAIR" INDICATES FEW OR NO CLOUDS BELOW 12,000 FEET WITH NO SIGNIFICANT WEATHER AND/OR OBSTRUCTIONS TO VISIBILITY NCZ015>017-031-032-045>047-102-103-041200- NORTH COAST CITY SKY/WX TMP DP RH WIND PRES REMARKS EDENTON PTSUNNY 74 70 87 W14 29.93R ELIZABETH CITY CLOUDY 74 71 91 W12 29.90R KITTY HAWK CLOUDY 76 72 88 W13G24 29.90R MANTEO CLOUDY 75 71 87 W15G23 29.93R $$ NCZ045>047-081-094-103-104-041200- CENTRAL COAST CITY SKY/WX TMP DP RH WIND PRES REMARKS FRISCO PTSUNNY 77 70 79 W15G23 29.95R SWANQUARTER N/A 77 N/A N/A W13G29 29.91S $$ NCZ095-097-098-100-101-041200- SOUTHERN COAST CITY SKY/WX TMP DP RH WIND PRES REMARKS BEAUFORT PTSUNNY 79 73 82 W12 29.98R CEDAR ISLAND N/A 79 N/A N/A SW7G17 30.00S JACKSONVILLE NOT AVBL PINEY ISLAND PTSUNNY N/A N/A N/A SW15G26 29.97R WILMINGTON PTCLDY 78 70 76 SW12 29.99R $$ NCZ011>013-027>030-043-044-078>080-089-090>093-098-041200- COASTAL PLAIN CITY SKY/WX TMP DP RH WIND PRES REMARKS AHOSKIE CLOUDY N/A N/A N/A CALM 29.93R CLINTON CLEAR 73 71 92 SW5 29.98R ELIZABETHTOWN PTCLDY 77 71 81 SW8G16 29.98S GOLDSBORO PTCLDY 74 70 88 SW8 29.95R GREENVILLE SUNNY 73 72 94 SW9 29.98R HAVELOCK MOSUNNY 77 69 76 W13 29.98R KENANSVILLE CLEAR 73 69 89 SW3 29.98S KINSTON SUNNY 73 70 88 SW9 29.97R NEW BERN SUNNY 74 69 85 W9 29.98R RICHLANDS CLEAR 73 66 78 SW8 29.99R ROCKY MOUNT SUNNY 73 70 90 SW7 29.95R WASHINGTON MOSUNNY 73 70 90 SW10G17 29.97R WHITEVILLE LGT RAIN 76 68 75 SW9G18 29.99S $$ AMZ130-135-150-152-154-156-158-170-250-252-270-ANZ085-086-088-633-658-670-041200- MARINE OBSERVATIONS STATION/POSITION TIME TEMP WIND PRES WAVE SWELL AIR SEA DIR/SP/G HT/PER HT/PER (UTC) (F) (DEG/KT/KT) (MB) (FT/S) (FT/S) CHESAPEAKE LIGHT 1100 75 240/ 22/ 24 1011.0 64 E VA BEACH 1050 77 76 260/ 17/ 21 1010.7 4/ 7 2/ 8 DUCK 1100 77 71 260/ 21/ 27 1011.7 2 E DUCK 1111 76 N/A 3/ 9 OREGON INLET 1100 76 78 240/ 17/ 22 1013.0 13E OREGON INLT 1100 69 N/A 5/ 7 HATTERAS CG 1100 79 77 240/ 12/ 18 1014.0 DIAMOND BUOY 1050 80 81 240/ 25/ 29 1013.6 8/ 7 3/14 CAPE LOOKOUT 1100 80 240/ 14/ 20 1015.1 BEAUFORT LAB 1100 79 80 260/ 3/ 10 1014.6 30 SE NEW RVR IN 1008 81 79 250/ 21/ 29 1015.7 27 SE WRIGHTSVLE 1100 80 260/ 19/ 25 N/A 5 SE WRIGHTSVLE 1008 80 78 250/ 17/ 23 1015.4 225 S CAPE HAT 1050 81 80 240/ 16/ 17 1019.6 6/ 6 2/ 8 41 SE CHARLESTON 1050 82 81 240/ 16/ 17 1017.2 6/ 6 2/ 8 $$

USA.gov is the U.S. government's official web portal to all federal, state and local government web resources and services.